Flag for U.S.A. Weather past 2 weeks in Overland Park, Kansas, U.S.A.

Now
22 °F

Mostly cloudy.


Feels Like: 22 °F
Forecast: 21 / 32 °F
Wind: No wind

Location: Johnson County Executive Airport

Current Time: Mar 1, 2015 at 2:27:46 AM

Latest Report: Mar 1, 2015 at 1:53 AM


Visibility: 7 mi

Pressure: 30.38 "Hg

Humidity: 92%

Dew point: 20 °F

Location of Overland ParkLocation

Historic Weather in Overland Park — Graph

°F

Overland Park temperature yesterday

Maximum temperature yesterday: 22 °F (at 2:59 PM)
Minimum temperature yesterday: 16 °F (at 3:53 AM)
Average temperature yesterday: 20 °F

Past Weeks' High & Low Weather Summary

 TemperatureHumidityPressure
High52 °F (Feb 25, 1:53 PM)100% (Feb 20, 9:53 PM)30.80 "Hg (Feb 20, 9:53 PM)
Low4 °F (Feb 27, 4:53 AM)23% (Feb 14, 1:53 PM)29.72 "Hg (Feb 25, 3:53 PM)
Average22 °F64%30.28 "Hg
* Reported Feb 14 12:53 AM — Mar 1 12:53 AM, Overland Park, Weather by CustomWeather, © 2015

Note: Actual official high and low records may vary slightly from our data, if they occured in-between our weather recording intervals... More about our weather records

Advertising

Overland Park weather history for previous 24 hours

 ConditionsComfort  
Time TempWeatherWind HumidityBarometerVisibility
12:53 AM
Sun, Mar 1
22 °FLight snow. Ice fog.No wind92%30.39 "Hg6 mi
12:00 AM22 °FLight snow. Ice fog.No wind92%30.35 "Hg3 mi
11:00 PM
Sat, Feb 28
22 °FLight snow. Ice fog.No wind92%30.36 "Hg2 mi
9:53 PM22 °FLight snow. Ice fog.5 mph89%30.41 "Hg4 mi
8:53 PM22 °FOvercast.6 mph85%30.41 "Hg8 mi
7:53 PM22 °FLight snow. Ice fog.3 mph96%30.41 "Hg5 mi
7:02 PM22 °FLight snow. Ice fog.3 mph89%30.37 "Hg2 mi
6:53 PM22 °FLight snow. Ice fog.3 mph89%30.42 "Hg3 mi
5:53 PM22 °FLight snow. Ice fog.6 mph89%30.40 "Hg2 mi
4:53 PM22 °FLight snow. Ice fog.6 mph85%30.41 "Hg1 mi
3:53 PM22 °FMore clouds than sun.6 mph85%30.43 "Hg10 mi
2:59 PM22 °FLight snow. Ice fog.8 mph85%30.38 "Hg2 mi
1:53 PM21 °FLight snow. Ice fog.6 mph88%30.46 "Hg1 mi
12:53 PM20 °FSnow. Ice fog.8 mph89%30.48 "Hg1 mi
11:53 AM20 °FLight snow. Ice fog.7 mph89%30.51 "Hg1 mi
10:53 AM19 °FLight snow. Ice fog.8 mph88%30.53 "Hg1 mi
9:53 AM18 °FLight snow. Ice fog.8 mph88%30.55 "Hg1 mi
8:53 AM19 °FLight snow. Mostly cloudy.9 mph71%30.55 "Hg1 mi
7:53 AM18 °FMostly cloudy.8 mph68%30.53 "Hg10 mi
6:53 AM17 °FOvercast.6 mph68%30.53 "Hg10 mi
5:53 AM17 °FOvercast.7 mph68%30.55 "Hg10 mi
4:53 AM17 °FOvercast.7 mph68%30.54 "Hg10 mi
3:53 AM16 °FOvercast.6 mph67%30.53 "Hg10 mi
2:53 AM17 °FOvercast.7 mph64%30.55 "Hg10 mi
Weather by CustomWeather, © 2015

See weather overviewHow to use our weather pages